[[{"header":{"parameterUnit":"m.s-1","parameterCategory":1,"la1":30.2991,"la2":30.254,"lo1":-89.0895,"lo2":-89.0444,"dy":0.0017,"dx":0.0017,"nx":28,"ny":28,"refTime":"2023-10-02T21:00:00:Z","depth":0,"parameterNumber":2,"parameterNumberName":"U-component_of_WINDS"},"data":[0,0,0,0,0,0,0,0,0,0,0,0,0,0,0,0,0,0,0,0,0,0,0,0,0,0,0,0,0,0,0,0,0,0,0,0,0,0,0,0,0,0,0,0,0,0,0,0,0,0,0,0,0,0,0,0,0,0,-5.6481,-5.6481,0,-5.65,-5.6501,-5.6501,-5.637,-5.6366,-5.6362,-5.6359,-5.6382,-5.6386,-5.639,0,0,0,0,0,0,0,0,0,0,0,0,0,-5.6332,-5.6336,-5.6481,-5.6481,-5.6481,-5.65,-5.6501,-5.6501,-5.637,-5.6366,-5.6361,-5.6357,-5.638,-5.6385,-5.639,0,0,0,0,0,0,0,0,0,0,0,0,0,-5.6379,-5.6337,-5.6481,-5.6418,-5.6413,-5.65,-5.6501,-5.6501,-5.6371,-5.6366,-5.636,-5.6355,-5.6379,-5.6385,-5.6391,-5.654,0,0,-5.6409,-5.6412,0,0,0,0,0,0,0,0,-5.6377,-5.6385,-5.6427,-5.6423,-5.6417,-5.6427,-5.6457,-5.6514,-5.6373,-5.6387,-5.6359,-5.6352,-5.6401,-5.6405,-5.6421,-5.6541,-5.6542,-5.641,-5.6414,-5.6416,-5.6418,0,0,0,0,0,0,0,-5.6374,-5.6383,-5.6488,-5.6428,-5.6422,-5.639,-5.6391,-5.6467,-5.6425,-5.6385,-5.6376,-5.638,-5.6397,-5.6416,-5.6421,-5.6542,-5.641,-5.6415,-5.6419,-5.6421,-5.6787,-5.6793,0,0,0,0,0,0,-5.6378,-5.6381,-5.6488,-5.6489,-5.6383,-5.6397,-5.6398,-5.6429,-5.6424,-5.6418,-5.6385,-5.6374,-5.6408,-5.6414,-5.6421,-5.6596,-5.6416,-5.6422,-5.6425,-5.6781,-5.6788,-5.6795,0,0,0,0,0,0,-5.6376,-5.6389,-5.6487,-5.6433,-5.6443,-5.6406,-5.6442,-5.6433,-5.6451,-5.6423,-5.6416,-5.6411,-5.6404,-5.6413,-5.6511,-5.6595,-5.6425,-5.643,-5.6774,-5.6783,-5.6792,-5.6948,0,0,0,0,0,0,-5.6372,-5.6389,-5.6445,-5.6435,-5.6446,-5.6577,-5.6447,-5.6437,-5.6461,-5.6447,-5.6446,-5.644,-5.64,-5.6503,-5.6518,-5.6601,-5.6435,-5.6766,-5.6778,-5.6789,-5.6935,-5.6962,-5.6984,0,0,0,0,0,-5.6367,-5.6488,-5.6448,-5.6462,-5.6515,-5.6582,-5.6588,-5.6539,-5.6468,-5.6525,-5.6507,-5.644,-5.6584,-5.6514,-5.653,-5.6616,-5.6761,-5.6775,-5.6788,-5.6925,-5.6956,-5.6983,0,0,0,0,0,0,-5.6509,-5.6486,-5.6441,-5.6562,-5.6575,-5.6559,-5.6629,-5.6574,-5.6607,-5.6593,-5.653,-5.6531,-5.6641,-5.6638,-5.6561,-5.6761,-5.666,-5.6678,-5.6759,-5.6789,-5.6813,-5.6812,-5.644,0,0,0,0,0,-5.6555,-5.661,-5.6587,-5.6696,-5.6705,-5.6666,-5.6693,-5.6654,-5.6665,-5.667,-5.666,-5.6674,-5.6722,-5.6755,-5.6798,-5.6934,-5.6933,-5.7001,-5.7025,-5.7045,-5.7062,-5.7135,-5.7165,-5.684,-5.684,-5.6839,0,0,-5.6649,-5.6643,-5.6682,-5.6724,-5.673,-5.679,-5.6671,-5.6739,-5.6784,-5.668,-5.6773,-5.6767,-5.6778,-5.6897,-5.6949,-5.6898,-5.7151,-5.7063,-5.7079,-5.7084,-5.7152,-5.7183,-5.7211,-5.6849,-5.6847,-5.6846,0,0,-5.6852,-5.6852,-5.6944,-5.6952,-5.6961,-5.6934,-5.6957,-5.695,-5.6942,-5.7034,-5.6958,-5.701,-5.7094,-5.7106,-5.7123,-5.7332,-5.7272,-5.7347,-5.7474,-5.7547,-5.7572,-5.7595,-5.7671,-5.7699,-5.7363,-5.7364,-5.7364,0,-5.6968,-5.7054,-5.6998,-5.7072,-5.7093,-5.7002,-5.7095,-5.7106,-5.7129,-5.7147,-5.7089,-5.7193,-5.7195,-5.7316,-5.7367,-5.7383,-5.7408,-5.7347,-5.7573,-5.7595,-5.7615,-5.7687,-5.7716,-5.7373,-5.7372,-5.7371,-5.737,0,-5.7198,-5.7259,-5.7332,-5.7357,-5.7386,-5.747,-5.7427,-5.7464,-5.7423,-5.7403,-5.7499,-5.7498,-5.7539,-5.7565,-5.7525,-5.7681,-5.7649,-5.7584,-5.7481,-5.7657,-5.7723,-5.775,-5.7386,-5.7383,-5.738,-5.7378,0,0,-5.749,-5.7483,-5.7511,-5.7522,-5.7526,-5.7572,-5.7652,-5.7692,-5.7726,-5.7745,-5.7812,-5.7885,-5.7825,-5.7845,-5.7805,-5.7869,-5.8036,-5.7795,-5.7795,-5.7841,-5.821,-5.826,-5.8293,-5.7996,-5.8001,-5.8005,-5.8209,0,-5.7689,-5.7824,-5.7776,-5.7914,-5.7971,-5.7886,-5.7955,-5.7966,-5.7951,-5.7997,-5.7979,-5.8033,-5.7949,-5.796,-5.8019,-5.8004,-5.811,-5.7988,-5.8059,-5.8062,-5.806,-5.8327,-5.838,-5.8572,-5.8235,-5.8239,-5.8242,0,-5.7939,-5.7968,-5.8113,-5.8108,-5.813,-5.8193,-5.8227,-5.8272,-5.8283,-5.8267,-5.829,-5.8238,-5.8317,-5.8215,-5.8324,-5.8242,-5.8268,-5.8265,-5.8272,-5.8277,-5.8163,-5.8341,-5.8632,-5.8662,-5.8282,-5.8279,-5.8276,0,-5.8139,-5.8215,-5.8311,-5.8323,-5.832,-5.8366,-5.8367,-5.8373,-5.84,-5.843,-5.8448,-5.8487,-5.8509,-5.8541,-5.8501,-5.843,-5.8617,-5.851,-5.8607,-5.8608,-5.8651,-5.8649,-5.8952,-5.8667,-5.8666,-5.8666,-5.8665,0,-5.8367,-5.8459,-5.8401,-5.8461,-5.8562,-5.8506,-5.8608,-5.8599,-5.8606,-5.8663,-5.8591,-5.8647,-5.859,-5.8641,-5.8611,-5.8707,-5.8717,-5.8707,-5.8698,-5.8714,-5.8716,-5.8731,-5.8717,-5.8673,-5.8671,-5.867,-5.8669,0,-5.8608,-5.8573,-5.8673,-5.8662,-5.8661,-5.8736,-5.8727,-5.8782,-5.8761,-5.8835,-5.8849,-5.8817,-5.8873,-5.8836,-5.8893,-5.8872,-5.8998,-5.897,-5.8995,-5.8988,-5.9087,-5.9078,-5.9411,-5.9452,-5.914,-5.9143,-5.9145,0,-5.8756,-5.8825,-5.8821,-5.8854,-5.886,-5.8913,-5.8941,-5.889,-5.8922,-5.8941,-5.8994,-5.9044,-5.9081,-5.9175,-5.9158,-5.9201,-5.9174,-5.9288,-5.918,-5.9195,-5.9178,-5.9174,-5.9182,-5.931,-5.9314,-5.9317,-5.9319,0,-5.9023,-5.9002,-5.9044,-5.9082,-5.9117,-5.9144,-5.9165,-5.9196,-5.9145,-5.9185,-5.9241,-5.927,-5.9328,-5.9379,-5.9416,-5.9417,-5.9362,-5.9353,-5.9378,-5.9395,-5.9407,-5.9403,-5.9055,-5.9346,-5.9343,-5.9341,-5.934,-5.9339,-5.9222,-5.928,-5.9287,-5.9337,-5.9347,-5.9369,-5.9421,-5.9406,-5.9452,-5.9495,-5.9462,-5.953,-5.954,-5.9583,-5.9593,-5.9646,-5.96,-5.9636,-5.9645,-5.9655,-5.9669,-5.9398,-5.9652,-5.9651,-5.9651,-5.965,-5.9649,0,-5.9486,-5.9486,-5.9533,-5.9565,-5.9605,-5.9547,-5.9568,-5.9605,-5.9665,-5.968,-5.9718,-5.9784,-5.9833,-5.982,-5.9865,-5.991,-5.9885,-5.9923,-5.992,-5.9922,-5.9707,-5.9681,-5.9943,-5.9943,-5.9943,-5.9943,-5.9942,-5.9942,-5.9628,-5.9723,-5.9704,-5.9804,-5.9803,-5.9868,-5.9885,-5.9906,-5.9917,-5.9993,-6.0034,-6.0024,-6.0028,-6.0073,-6.0116,-6.0111,-6.0132,-6.018,-6.0166,-5.9966,-5.9937,-5.9909,-5.9885,-6.0185,-6.0185,-6.0376,-6.0378,-6.0379]},{"header":{"parameterUnit":"m.s-1","parameterCategory":1,"la1":30.2991,"la2":30.254,"lo1":-89.0895,"lo2":-89.0444,"dy":0.0017,"dx":0.0017,"nx":28,"ny":28,"refTime":"2023-10-02T21:00:00:Z","depth":0,"parameterNumber":3,"parameterNumberName":"V-component_of_WINDS"},"data":[0,0,0,0,0,0,0,0,0,0,0,0,0,0,0,0,0,0,0,0,0,0,0,0,0,0,0,0,0,0,0,0,0,0,0,0,0,0,0,0,0,0,0,0,0,0,0,0,0,0,0,0,0,0,0,0,0,0,-0.7405,-0.7405,0,-0.7395,-0.7395,-0.7395,-0.7357,-0.7356,-0.7356,-0.7355,-0.7345,-0.7345,-0.7346,0,0,0,0,0,0,0,0,0,0,0,0,0,-0.7392,-0.7392,-0.7405,-0.7405,-0.7405,-0.7395,-0.7395,-0.7395,-0.7357,-0.7356,-0.7355,-0.7354,-0.7345,-0.7345,-0.7346,0,0,0,0,0,0,0,0,0,0,0,0,0,-0.7391,-0.7392,-0.7405,-0.7385,-0.7383,-0.7395,-0.7395,-0.7395,-0.7358,-0.7356,-0.7355,-0.7354,-0.7345,-0.7345,-0.7346,-0.7377,0,0,-0.7349,-0.7349,0,0,0,0,0,0,0,0,-0.7391,-0.7392,-0.7388,-0.7387,-0.7384,-0.7376,-0.7386,-0.7389,-0.7358,-0.7367,-0.7355,-0.7353,-0.7356,-0.7356,-0.7357,-0.7376,-0.7376,-0.7349,-0.7349,-0.7349,-0.735,0,0,0,0,0,0,0,-0.7391,-0.7392,-0.7401,-0.7388,-0.7386,-0.7376,-0.7375,-0.7387,-0.7369,-0.7366,-0.7364,-0.7363,-0.7355,-0.7356,-0.7356,-0.7376,-0.7349,-0.7349,-0.735,-0.735,-0.7417,-0.7418,0,0,0,0,0,0,-0.7394,-0.7392,-0.7401,-0.7401,-0.7385,-0.7378,-0.7376,-0.738,-0.7369,-0.7366,-0.7364,-0.7361,-0.7356,-0.7356,-0.7356,-0.739,-0.7349,-0.735,-0.7351,-0.7416,-0.7417,-0.7419,0,0,0,0,0,0,-0.7394,-0.7395,-0.7402,-0.7396,-0.7396,-0.7379,-0.7384,-0.7381,-0.7382,-0.7367,-0.7364,-0.7369,-0.7355,-0.7355,-0.7371,-0.7389,-0.7351,-0.7351,-0.7414,-0.7416,-0.7418,-0.7458,0,0,0,0,0,0,-0.7394,-0.7396,-0.7407,-0.7396,-0.7396,-0.7418,-0.7385,-0.7381,-0.7383,-0.7379,-0.7371,-0.7368,-0.7354,-0.737,-0.7372,-0.7389,-0.7352,-0.7413,-0.7415,-0.7417,-0.7455,-0.7461,-0.7466,0,0,0,0,0,-0.7393,-0.742,-0.7408,-0.7409,-0.7411,-0.7419,-0.7419,-0.7402,-0.7385,-0.7396,-0.7386,-0.7368,-0.7387,-0.7372,-0.7374,-0.7392,-0.7411,-0.7414,-0.7417,-0.7453,-0.746,-0.7466,0,0,0,0,0,0,-0.7434,-0.7418,-0.7405,-0.7428,-0.7425,-0.7413,-0.7427,-0.741,-0.7412,-0.7409,-0.7387,-0.7386,-0.7405,-0.74,-0.7384,-0.742,-0.7396,-0.7399,-0.7422,-0.7429,-0.7435,-0.7435,-0.7353,0,0,0,0,0,-0.7445,-0.7454,-0.7439,-0.7461,-0.746,-0.7444,-0.7447,-0.7433,-0.7429,-0.7428,-0.742,-0.7416,-0.7421,-0.7425,-0.7429,-0.7454,-0.7451,-0.7467,-0.7473,-0.7477,-0.748,-0.7492,-0.7498,-0.7428,-0.7428,-0.7428,0,0,-0.747,-0.7462,-0.7468,-0.7469,-0.7465,-0.7473,-0.7443,-0.7453,-0.7459,-0.743,-0.7444,-0.7438,-0.7433,-0.7453,-0.7462,-0.745,-0.7499,-0.7481,-0.7485,-0.7485,-0.7495,-0.7502,-0.7508,-0.743,-0.743,-0.743,0,0,-0.7518,-0.7513,-0.753,-0.7526,-0.752,-0.7509,-0.7513,-0.7502,-0.7497,-0.7511,-0.7488,-0.7495,-0.7504,-0.75,-0.75,-0.7545,-0.7527,-0.7547,-0.7576,-0.7587,-0.7593,-0.7597,-0.7612,-0.7618,-0.755,-0.755,-0.755,0,-0.7549,-0.756,-0.7541,-0.7552,-0.7553,-0.7525,-0.7542,-0.7539,-0.7535,-0.7536,-0.7522,-0.7531,-0.7526,-0.7545,-0.7556,-0.7557,-0.756,-0.7547,-0.7593,-0.7598,-0.7602,-0.7616,-0.7622,-0.7552,-0.7552,-0.7552,-0.7551,0,-0.7598,-0.7606,-0.762,-0.7616,-0.7618,-0.7632,-0.7614,-0.7618,-0.7605,-0.7594,-0.7608,-0.7601,-0.7602,-0.7605,-0.7593,-0.7622,-0.7614,-0.7597,-0.7573,-0.7611,-0.7624,-0.7629,-0.7555,-0.7555,-0.7554,-0.7553,0,0,-0.7672,-0.7655,-0.7661,-0.7657,-0.7648,-0.7654,-0.7666,-0.7666,-0.767,-0.7667,-0.7676,-0.7684,-0.7668,-0.7667,-0.7653,-0.7664,-0.7697,-0.7645,-0.7645,-0.7654,-0.7727,-0.7739,-0.7746,-0.7686,-0.7687,-0.7688,-0.7727,0,-0.7717,-0.7736,-0.7718,-0.7741,-0.7748,-0.7721,-0.7731,-0.7726,-0.7717,-0.7721,-0.771,-0.7715,-0.7694,-0.7694,-0.7702,-0.7692,-0.7712,-0.7689,-0.7693,-0.7694,-0.7695,-0.7753,-0.7766,-0.7803,-0.7732,-0.7733,-0.7734,0,-0.7772,-0.777,-0.7794,-0.7781,-0.7783,-0.7793,-0.779,-0.7795,-0.7788,-0.778,-0.7779,-0.7762,-0.7772,-0.7748,-0.7761,-0.7746,-0.7747,-0.7741,-0.7742,-0.7742,-0.7716,-0.7752,-0.7815,-0.7821,-0.7741,-0.7741,-0.774,0,-0.7822,-0.7826,-0.784,-0.7838,-0.7824,-0.7831,-0.7826,-0.7817,-0.7818,-0.7816,-0.7816,-0.7816,-0.7816,-0.7815,-0.7798,-0.7783,-0.7813,-0.7788,-0.7806,-0.7807,-0.7813,-0.7813,-0.7876,-0.7816,-0.7815,-0.7815,-0.7815,0,-0.7873,-0.7888,-0.7862,-0.7871,-0.7886,-0.7865,-0.7881,-0.7873,-0.7865,-0.7871,-0.7849,-0.7855,-0.7832,-0.7836,-0.7822,-0.7834,-0.7835,-0.7828,-0.7824,-0.783,-0.783,-0.7829,-0.7826,-0.7817,-0.7816,-0.7816,-0.7816,0,-0.7931,-0.7915,-0.7928,-0.7913,-0.7909,-0.7921,-0.7908,-0.7915,-0.7903,-0.7911,-0.7912,-0.7894,-0.7896,-0.7879,-0.7879,-0.787,-0.7888,-0.788,-0.789,-0.7888,-0.7906,-0.7904,-0.797,-0.7977,-0.7913,-0.7913,-0.7914,0,-0.7965,-0.7975,-0.7961,-0.7963,-0.7958,-0.7962,-0.7962,-0.7942,-0.7943,-0.7935,-0.7942,-0.7943,-0.7942,-0.7948,-0.7935,-0.7934,-0.7925,-0.7948,-0.7925,-0.7929,-0.7924,-0.7923,-0.7923,-0.7953,-0.7954,-0.7955,-0.7955,0,-0.8025,-0.8016,-0.8017,-0.8015,-0.8015,-0.8013,-0.8009,-0.8012,-0.7989,-0.7991,-0.7993,-0.7993,-0.7992,-0.7992,-0.7989,-0.7983,-0.7965,-0.7963,-0.7966,-0.7972,-0.7976,-0.7973,-0.7903,-0.7961,-0.796,-0.796,-0.796,-0.796,-0.8071,-0.8079,-0.8069,-0.8071,-0.8065,-0.8061,-0.8066,-0.8055,-0.8056,-0.8053,-0.8041,-0.8045,-0.8037,-0.803,-0.8025,-0.8027,-0.8016,-0.8022,-0.8023,-0.8025,-0.8028,-0.7977,-0.8027,-0.8027,-0.8026,-0.8026,-0.8026,0,-0.8129,-0.8121,-0.8123,-0.8117,-0.8118,-0.8101,-0.8095,-0.8097,-0.81,-0.8094,-0.8093,-0.8095,-0.8095,-0.8081,-0.8079,-0.8083,-0.8075,-0.8083,-0.8082,-0.8081,-0.8038,-0.8035,-0.809,-0.809,-0.809,-0.809,-0.809,-0.809,-0.8159,-0.8171,-0.816,-0.8168,-0.816,-0.8163,-0.8161,-0.8157,-0.8151,-0.8154,-0.8154,-0.8144,-0.8134,-0.8131,-0.813,-0.8126,-0.8126,-0.8137,-0.813,-0.809,-0.8084,-0.8078,-0.8075,-0.8137,-0.8137,-0.8172,-0.8172,-0.8173]}]]